Vertical_Velocity
-0 -1 -2 -2 -1 -2 -1 -1 -2 -2 -1 -1 -1 -1 -2 -3 -3 -4 1 -1 -1 9 3 8 1 -2 -0 4 3 3 6 -5 11 4 2 -5 5 2 -1 3 -2 -1 -1 -2 -0 1 -4 7 5 2 -1 1 1 3
-2 -1 -1 -2 -2 -1 -2 -2 -2 -1 -1 -1 -1 -2 -2 -3 -3 -6 0 -3 3 1 4 -5 -5 -3 6 1 4 4 -7 -4 1 2 4 8 0 3 -5 2 -2 -9 -7 -3 2 -0 6 7 4 -2 2 4 -1 2
-2 -1 -0 -1 -2 -2 -1 -2 -2 -2 -2 -1 -2 -2 -4 -5 -4 -6 -5 -0 -3 3 3 -2 19 4 -4 9 -5 -1 4 -6 -3 -4 -1 -4 -6 7 -7 -3 4 -4 -10 -3 3 -1 3 5 0 0 -1 -3 -0 -0
-2 -2 -2 -1 -2 -2 -2 -3 -2 -3 -2 -2 -2 -2 -2 -3 -3 -6 -5 -3 -1 4 -2 8 0 -6 5 6 5 0 3 -2 3 5 1 0 4 2 3 -1 2 -1 -0 -1 -1 -2 2 4 -7 5 2 6 4 2
-1 -0 -1 -1 -1 -2 -2 -2 -2 -3 -4 -4 -3 -2 -1 -1 -2 -3 -5 -4 -0 -8 1 6 -3 1 24 -2 3 3 8 1 2 -1 -3 -2 3 5 -2 5 -0 -3 3 -1 2 1 2 3 -5 3 5 0 1 2
-0 -0 -0 0 0 -1 -1 -2 -2 -2 -2 -3 -3 1 1 1 0 -2 -4 -4 -3 -2 9 8 2 -15 27 -3 5 5 3 2 5 -7 -7 -1 1 -3 1 -0 -5 1 1 -2 2 -0 -2 2 3 2 -2 -2 -0 1
-1 -0 0 1 1 -0 -1 -2 -1 -2 -2 -2 -0 0 -0 -1 -1 -2 1 6 3 5 8 -0 -6 -6 48 -3 -2 8 5 1 8 -4 -2 3 1 -3 -1 0 -2 2 0 2 0 -1 3 1 -1 2 0 -2 2 0
1 1 -0 0 0 0 -1 -2 -1 -1 -0 -1 -0 0 -1 -1 1 1 -2 1 2 1 7 -9 -10 14 26 1 6 -7 -1 -2 -0 -2 4 -0 2 -3 -5 3 0 -3 2 -1 -2 -2 -2 0 3 2 -2 0 0 -2
1 1 1 1 1 1 -0 -0 -1 0 1 -1 0 -0 0 2 0 1 -1 10 15 16 -11 -7 8 2 -12 25 3 -5 -3 -3 -1 -1 -1 4 -3 -4 3 1 6 2 4 -0 -0 -1 -0 0 1 -0 1 0 -1 -1
3 1 1 2 2 1 1 -0 -1 1 0 0 0 0 1 -2 4 7 -3 14 2 -7 -4 -1 -8 3 20 12 5 8 2 24 17 4 -5 1 -0 -2 2 -4 -7 -0 -1 -0 -1 -3 -3 -1 -1 2 0 2 -3 -5
2 2 3 2 2 2 1 -0 1 1 -1 -2 -2 -2 -0 1 3 -0 14 11 -6 -2 0 -2 2 9 1 -0 -5 -3 2 39 19 -6 -1 -1 7 2 -2 -2 1 1 1 -0 1 -2 -2 -2 -1 1 -1 -2 -1 -0
2 2 2 3 3 2 1 0 0 1 1 4 2 1 1 3 2 6 23 3 4 5 0 5 16 15 -1 0 9 -3 3 3 -9 -4 -11 -1 9 4 -0 2 1 2 1 0 0 -0 2 3 -4 -6 -2 1 1 1
-0 1 2 3 2 2 0 1 1 1 0 -0 0 0 -0 -0 13 23 3 3 -0 3 3 2 4 4 24 11 10 8 -6 -5 3 -3 -3 14 -5 -1 2 3 2 1 -1 -2 -4 -5 -7 -7 -3 1 -0 -0 1 1
1 -0 1 2 2 2 0 0 1 0 -1 -1 -2 -1 -6 -0 5 1 2 -1 2 3 -5 -2 -1 4 2 1 -8 -12 -4 3 -2 -2 -5 0 2 6 5 3 -3 1 -1 -4 -1 -4 -3 0 -1 1 1 0 -2 -2
-1 -0 0 1 0 1 0 2 -0 -0 -2 -2 -1 4 8 4 0 -4 -6 -5 -5 -1 2 -1 -4 1 8 -1 26 25 4 -1 -3 1 10 3 -7 -1 1 -0 1 0 -1 -0 0 1 0 -5 -3 -4 -2 -4 -2 -1
-1 -1 -2 -1 0 1 3 1 1 -0 -1 -0 1 -5 1 4 5 0 2 7 5 11 3 -1 -6 2 5 2 4 -2 -1 -3 -2 -3 2 4 5 5 3 -0 -2 0 -2 -4 -5 -1 2 1 0 -4 1 2 1 1
-1 -1 -1 0 2 -0 -2 6 4 2 1 -0 -3 17 54 5 -2 -3 2 7 6 11 9 -2 -3 -12 -2 -7 -7 -0 4 -10 -3 1 -0 -3 4 -3 1 4 0 -3 -0 -2 -2 4 2 -3 0 -3 1 -0 -0 2
-2 -0 -1 -0 -3 3 5 10 0 -6 -4 23 8 8 4 -0 1 -3 -3 -5 1 0 7 14 -1 -4 1 -1 4 -2 -4 2 -1 2 7 2 4 -1 -3 1 -1 -3 -1 -2 -3 -2 -2 -3 -1 -2 1 0 1 2
-0 0 -1 -1 -1 1 2 8 -1 2 -3 5 11 4 0 -0 12 -1 -2 -6 2 17 -13 -1 5 -7 -6 -5 1 -3 -4 1 -4 -2 -2 -6 -2 11 13 -1 -2 1 -2 -1 1 -1 -1 -1 0 -0 -3 -1 1 -2
0 -0 0 -0 -3 -0 -3 -3 -3 -1 -6 5 7 -0 -1 10 16 5 0 -6 -8 -8 1 1 2 -1 -3 8 -2 -4 -6 2 5 -1 -3 0 11 8 1 -4 -2 -1 -1 -2 -2 -2 -2 -2 -1 -1 1 -0 0 -0
-2 -1 -2 -5 -2 -0 2 2 -2 -0 2 1 1 -1 -1 35 5 4 -1 -0 -5 -11 -6 -5 1 -4 1 -1 2 -5 2 3 2 6 1 7 3 1 -1 1 -1 -5 -3 -2 -0 0 0 -1 -1 0 -0 -2 -0 -0
-0 -1 -2 -1 -0 0 -1 -1 0 1 -1 0 -6 -2 23 13 3 -2 -2 -3 -2 -3 -1 4 -2 0 -1 -2 -5 4 2 -2 3 4 2 -1 -1 2 0 -0 -1 -1 -2 2 0 -3 -1 1 1 -1 -2 -1 -0 -0
-1 -1 2 -0 -2 -1 0 -2 -1 0 1 2 1 1 4 4 18 -1 -1 -3 -1 -8 -5 2 0 -1 1 3 2 -0 0 2 3 1 -2 -1 -2 -3 -0 -2 -3 0 2 -1 0 3 2 -1 -1 1 1 0 0 1
-2 -2 -1 -2 -3 -3 -3 -3 -2 -2 0 0 -3 2 8 5 6 6 0 -4 12 -4 4 -2 -2 2 4 4 0 19 29 10 -1 -5 -0 -1 -2 -1 1 -1 -3 -1 -0 1 -1 -1 -1 -2 -0 0 0 0 0 0
2 2 1 -2 -1 -2 -2 -3 -3 -2 -2 -4 0 1 4 6 6 8 6 5 6 -6 0 -1 1 -0 3 1 -1 -2 0 -0 -2 -0 0 1 -0 -2 -3 -3 -1 -1 -1 0 0 -1 -0 2 2 0 -1 -1 -0 -0
-1 0 2 2 -2 -0 -1 -2 -2 -2 -1 -2 1 1 2 2 3 6 3 1 1 -3 1 7 3 -1 -1 -2 0 2 -0 -2 -1 1 -1 -2 -2 -1 -0 -1 -1 -1 -2 -2 0 2 1 0 -0 -0 0 -1 -2 -1
-1 -0 0 6 4 0 -1 -1 -1 -1 -1 -1 -1 0 2 2 2 3 5 2 1 1 -1 -2 1 4 -1 5 5 1 -0 2 0 -0 1 1 1 2 -1 0 -0 1 2 1 1 0 -0 2 2 1 0 1 0 -1
-2 1 12 9 -2 1 2 -2 -1 0 0 -0 -0 -2 -3 0 -1 1 -2 1 0 -1 -0 1 1 2 2 -0 -0 2 1 -0 -0 -0 1 1 0 -0 1 2 1 -1 -1 1 1 1 1 2 2 1 1 -0 -1 -1
-1 1 1 0 -1 -2 0 0 1 2 1 1 0 -1 -1 -0 -1 -0 0 0 0 1 1 0 1 1 -0 1 3 3 1 -2 -1 2 2 2 2 -0 -2 -0 3 4 3 4 1 0 -0 -0 0 0 0 0 -1 -1
1 1 1 1 -0 -1 -1 0 -1 -1 1 1 1 1 1 -0 -0 1 2 2 0 -1 -1 -0 -1 -1 -1 -1 1 3 3 2 -1 -2 -2 -2 -3 -1 -1 -1 -1 -0 -0 -0 0 1 1 1 0 0 -0 -1 -0 0
-0 1 1 0 -1 -0 1 -0 -1 -1 -1 -1 -0 0 -0 -0 -1 -1 -0 -1 -1 -0 -1 -1 -1 -2 -2 -2 -3 -4 -5 -4 -3 -3 -2 0 3 2 1 1 1 1 -0 -0 -0 -1 -1 -1 -0 -1 -1 -1 -2 -2
-1 -1 0 -0 -0 -2 -2 -2 -1 -1 0 -0 0 1 1 1 0 -0 -0 -1 -2 -2 -1 -1 -2 -3 -2 -2 -0 2 2 -0 -1 -2 -2 -2 -2 -2 -3 -3 -3 -2 -1 -1 -1 -1 -1 -2 -3 -3 -1 -1 -2 -2
0 -1 -1 -1 -0 0 1 1 0 -1 -2 -3 -3 -3 -2 -2 -2 -1 -1 0 0 -0 -2 -3 -3 -2 -1 -0 -1 -1 1 1 -0 -1 -2 -1 0 -0 -0 -1 -2 0 2 0 -1 -2 -1 -0 -2 -1 -1 -1 -1 -1
Height
5689 5684 5680 5677 5674 5672 5669 5668 5666 5665 5665 5664 5664 5665 5667 5669 5671 5675 5681 5686 5693 5701 5712 5721 5731 5743 5754 5764 5773 5782 5791 5800 5810 5817 5824 5831 5840 5843 5845 5850 5854 5858 5862 5865 5868 5870 5873 5878 5878 5879 5879 5877 5877 5876
5678 5674 5670 5666 5663 5660 5658 5657 5656 5655 5653 5653 5653 5653 5655 5657 5659 5661 5665 5672 5678 5688 5701 5707 5720 5733 5745 5753 5763 5770 5779 5787 5797 5806 5816 5823 5831 5836 5839 5844 5848 5853 5856 5860 5863 5864 5866 5868 5870 5871 5871 5869 5868 5866
5668 5663 5659 5655 5652 5650 5648 5647 5645 5644 5643 5643 5642 5643 5644 5645 5647 5649 5651 5657 5665 5675 5688 5696 5711 5717 5730 5744 5752 5762 5770 5777 5787 5797 5808 5815 5821 5830 5834 5838 5841 5845 5849 5853 5857 5857 5859 5861 5862 5864 5862 5862 5861 5859
5657 5652 5647 5644 5642 5639 5637 5636 5635 5634 5633 5632 5631 5631 5632 5633 5635 5636 5638 5645 5652 5662 5675 5685 5695 5708 5721 5733 5745 5754 5763 5771 5780 5790 5799 5808 5815 5821 5828 5832 5835 5839 5843 5845 5848 5850 5853 5855 5856 5856 5856 5857 5855 5853
5645 5640 5636 5634 5631 5629 5627 5625 5624 5623 5622 5620 5619 5619 5619 5621 5623 5625 5628 5635 5641 5651 5663 5673 5685 5697 5712 5724 5737 5746 5755 5763 5772 5781 5791 5800 5807 5814 5819 5825 5828 5832 5836 5840 5842 5846 5847 5849 5849 5849 5849 5848 5846 5843
5634 5630 5626 5624 5621 5619 5617 5614 5612 5611 5609 5607 5606 5606 5607 5609 5613 5617 5622 5628 5635 5642 5654 5662 5674 5690 5704 5716 5728 5738 5747 5756 5765 5774 5784 5792 5799 5806 5811 5817 5821 5826 5829 5833 5836 5838 5840 5842 5842 5841 5840 5839 5837 5834
5623 5620 5617 5614 5611 5608 5606 5603 5601 5598 5597 5596 5595 5596 5598 5602 5606 5611 5618 5624 5629 5637 5646 5654 5668 5681 5688 5706 5721 5733 5740 5748 5758 5767 5776 5784 5790 5796 5802 5809 5814 5819 5822 5825 5828 5831 5834 5835 5835 5835 5834 5832 5829 5827
5612 5609 5606 5603 5601 5598 5596 5593 5590 5589 5588 5588 5589 5591 5595 5598 5603 5607 5612 5618 5626 5634 5642 5651 5664 5670 5681 5698 5712 5724 5733 5741 5750 5759 5767 5773 5781 5787 5792 5800 5806 5810 5814 5817 5821 5824 5825 5826 5826 5825 5825 5823 5821 5819
5602 5598 5595 5593 5590 5588 5587 5584 5582 5582 5582 5583 5586 5589 5592 5596 5600 5604 5609 5614 5620 5630 5639 5650 5662 5670 5679 5696 5708 5719 5729 5736 5744 5750 5757 5766 5770 5777 5784 5791 5798 5803 5806 5810 5813 5816 5817 5818 5817 5816 5815 5813 5813 5812
5589 5586 5584 5582 5581 5580 5578 5577 5577 5577 5579 5581 5584 5587 5590 5594 5597 5601 5607 5612 5617 5627 5638 5649 5659 5669 5681 5692 5700 5714 5720 5731 5735 5743 5750 5758 5763 5769 5777 5783 5787 5793 5798 5803 5805 5806 5808 5809 5809 5808 5807 5807 5806 5805
5574 5572 5572 5572 5572 5572 5572 5572 5573 5575 5577 5580 5582 5586 5589 5592 5596 5601 5605 5612 5618 5629 5638 5649 5658 5670 5678 5688 5698 5704 5711 5713 5723 5736 5744 5752 5761 5767 5771 5775 5780 5786 5791 5794 5796 5798 5800 5801 5801 5800 5800 5800 5798 5797
5561 5561 5562 5564 5565 5567 5568 5569 5571 5574 5577 5580 5583 5586 5588 5591 5596 5601 5605 5613 5621 5631 5641 5649 5656 5667 5675 5685 5692 5701 5707 5713 5721 5732 5738 5744 5757 5760 5765 5770 5775 5779 5782 5784 5786 5789 5791 5792 5794 5795 5795 5792 5791 5790
5555 5554 5556 5558 5561 5564 5566 5569 5572 5575 5577 5580 5583 5586 5589 5594 5597 5602 5608 5616 5623 5631 5640 5649 5657 5664 5673 5683 5690 5698 5703 5711 5721 5728 5735 5743 5748 5756 5762 5766 5769 5771 5774 5777 5779 5782 5785 5787 5787 5787 5786 5785 5784 5783
5552 5552 5554 5557 5561 5564 5567 5570 5574 5576 5579 5581 5584 5588 5593 5598 5602 5606 5612 5619 5626 5634 5642 5649 5656 5662 5672 5681 5690 5696 5704 5709 5714 5722 5729 5736 5744 5750 5755 5761 5765 5767 5769 5771 5774 5775 5777 5779 5780 5780 5780 5779 5778 5777
5554 5555 5557 5560 5563 5566 5570 5573 5576 5578 5580 5583 5587 5592 5597 5601 5605 5610 5616 5622 5628 5635 5643 5652 5659 5664 5673 5682 5686 5693 5700 5706 5711 5718 5727 5734 5740 5746 5750 5752 5755 5761 5765 5767 5767 5768 5772 5773 5774 5774 5774 5773 5772 5771
5561 5561 5563 5565 5568 5571 5574 5576 5577 5580 5584 5589 5594 5598 5601 5604 5607 5613 5619 5625 5632 5639 5646 5652 5659 5667 5674 5680 5685 5692 5698 5703 5710 5715 5725 5731 5734 5738 5743 5748 5752 5755 5758 5761 5761 5761 5765 5768 5768 5768 5768 5768 5767 5765
5569 5570 5571 5573 5575 5577 5579 5581 5584 5588 5591 5596 5600 5600 5603 5607 5612 5617 5623 5630 5635 5641 5648 5655 5662 5669 5677 5683 5687 5691 5697 5702 5707 5714 5720 5724 5729 5734 5738 5742 5745 5751 5754 5755 5756 5758 5759 5761 5762 5762 5762 5762 5759 5757
5578 5578 5580 5581 5583 5583 5586 5589 5592 5594 5597 5601 5604 5607 5609 5614 5619 5623 5628 5633 5637 5642 5648 5655 5663 5672 5678 5684 5690 5693 5698 5701 5705 5710 5716 5721 5725 5728 5733 5737 5742 5746 5749 5750 5752 5753 5754 5755 5756 5757 5757 5756 5755 5755
5587 5588 5589 5589 5589 5591 5593 5596 5599 5601 5604 5605 5609 5612 5617 5620 5623 5628 5632 5637 5641 5643 5651 5657 5663 5672 5678 5682 5687 5692 5696 5699 5705 5710 5714 5717 5719 5723 5728 5734 5739 5743 5746 5748 5749 5749 5750 5750 5751 5751 5750 5750 5750 5748
5596 5595 5595 5595 5597 5599 5602 5604 5608 5611 5612 5612 5617 5619 5623 5625 5627 5632 5636 5640 5645 5651 5655 5660 5667 5672 5677 5683 5686 5690 5694 5698 5703 5708 5711 5713 5715 5720 5726 5731 5736 5740 5742 5743 5744 5745 5746 5747 5746 5746 5745 5743 5743 5743
5601 5601 5601 5602 5605 5607 5609 5612 5614 5616 5618 5620 5623 5625 5627 5625 5633 5637 5640 5642 5650 5657 5661 5665 5669 5674 5679 5685 5688 5692 5695 5700 5703 5707 5710 5715 5718 5722 5726 5731 5735 5736 5737 5738 5740 5742 5742 5741 5741 5741 5741 5739 5738 5737
5608 5608 5609 5611 5613 5615 5618 5620 5622 5624 5626 5626 5627 5628 5630 5634 5636 5637 5641 5646 5652 5657 5662 5667 5673 5678 5681 5685 5689 5692 5697 5701 5705 5708 5712 5716 5719 5722 5725 5729 5731 5732 5734 5736 5737 5736 5736 5736 5735 5735 5734 5733 5732 5731
5616 5617 5618 5619 5621 5622 5626 5627 5628 5630 5630 5632 5633 5634 5635 5637 5639 5642 5646 5651 5656 5661 5665 5669 5674 5677 5683 5687 5690 5693 5698 5702 5705 5708 5712 5715 5719 5721 5723 5725 5727 5729 5732 5733 5733 5732 5732 5731 5731 5730 5729 5728 5726 5724
5626 5626 5626 5626 5627 5629 5631 5632 5634 5635 5636 5637 5639 5639 5640 5642 5645 5647 5650 5655 5660 5663 5670 5673 5677 5681 5685 5688 5692 5695 5697 5700 5704 5708 5712 5717 5718 5720 5722 5723 5724 5725 5726 5727 5727 5726 5725 5725 5725 5724 5722 5720 5718 5715
5634 5634 5632 5631 5633 5634 5635 5637 5638 5640 5641 5642 5643 5644 5645 5647 5649 5652 5655 5660 5664 5667 5672 5677 5680 5684 5687 5691 5694 5697 5701 5704 5707 5709 5712 5713 5714 5716 5717 5718 5718 5719 5720 5721 5721 5722 5722 5721 5720 5718 5717 5714 5711 5709
5639 5639 5640 5639 5639 5640 5640 5641 5643 5645 5646 5647 5649 5650 5652 5654 5655 5658 5661 5663 5667 5671 5675 5679 5682 5686 5689 5692 5694 5698 5702 5705 5707 5708 5711 5712 5713 5714 5716 5716 5716 5716 5717 5716 5717 5717 5717 5715 5713 5711 5709 5706 5704 5701
5643 5643 5643 5643 5644 5644 5645 5646 5648 5650 5652 5654 5655 5657 5658 5660 5662 5664 5666 5669 5672 5675 5678 5681 5684 5688 5690 5693 5698 5702 5703 5705 5707 5709 5710 5711 5712 5714 5714 5714 5713 5712 5712 5712 5711 5710 5709 5708 5707 5705 5703 5700 5698 5696
5646 5646 5647 5648 5649 5649 5650 5652 5654 5655 5657 5659 5661 5663 5665 5666 5667 5669 5672 5674 5676 5678 5680 5683 5686 5690 5693 5696 5699 5700 5702 5704 5706 5708 5709 5709 5709 5709 5710 5709 5709 5709 5708 5708 5707 5705 5704 5703 5701 5699 5697 5695 5693 5690
5650 5651 5652 5653 5654 5655 5656 5658 5659 5661 5662 5664 5665 5667 5669 5670 5672 5674 5676 5678 5680 5682 5684 5686 5688 5691 5692 5695 5698 5700 5702 5702 5703 5704 5704 5705 5705 5705 5704 5704 5704 5704 5703 5702 5701 5699 5697 5696 5695 5693 5692 5690 5688 5686
5656 5656 5657 5658 5659 5660 5661 5663 5664 5666 5667 5669 5670 5673 5674 5676 5677 5679 5680 5682 5683 5685 5687 5689 5691 5692 5694 5694 5696 5697 5699 5699 5699 5699 5700 5701 5701 5701 5699 5698 5697 5696 5695 5694 5692 5692 5691 5690 5688 5687 5686 5683 5681 5679
5659 5661 5662 5662 5663 5665 5666 5667 5669 5670 5672 5673 5675 5676 5678 5679 5680 5681 5683 5684 5686 5687 5689 5690 5691 5692 5693 5694 5696 5697 5698 5698 5697 5697 5696 5696 5696 5695 5694 5692 5691 5690 5689 5688 5687 5686 5685 5684 5682 5681 5679 5676 5674 5671
5662 5663 5664 5665 5666 5667 5669 5670 5671 5673 5674 5675 5677 5678 5679 5680 5682 5683 5684 5684 5685 5687 5688 5689 5690 5690 5691 5692 5693 5694 5694 5693 5693 5691 5690 5689 5688 5687 5686 5686 5685 5684 5684 5683 5682 5681 5679 5678 5676 5674 5672 5669 5666 5663
5664 5665 5666 5667 5668 5669 5671 5673 5675 5676 5677 5678 5680 5680 5681 5683 5683 5685 5685 5686 5687 5687 5686 5686 5687 5687 5688 5688 5688 5688 5689 5689 5688 5687 5686 5685 5685 5684 5683 5682 5681 5680 5679 5678 5676 5675 5674 5672 5669 5666 5664 5661 5658 5655